| time (UTC) | temp F | wind direction | speed knots | gust knots | rain 1hr in | rain 24hr in | rain mn in | humidity % | barometer mb |
| 20260903031519 | 58 | 248 | 2.6 | 10.4 | 0.00 | 0.00 | 0.00 | 77 | 1013.0 |
| 20260903030020 | 58 | 304 | 6.1 | 13.0 | 0.00 | 0.00 | 0.00 | 78 | 1013.2 |
| 20260903024519 | 58 | 278 | 7.0 | 13.0 | 0.00 | 0.00 | 0.00 | 80 | 1013.2 |
| 20260903021517 | 56 | 288 | 3.5 | 10.4 | 0.00 | 0.00 | 0.00 | 85 | 1012.7 |
| 20260903020017 | 56 | 273 | 5.2 | 12.2 | 0.00 | 0.00 | 0.00 | 84 | 1012.8 |
| 20260903014517 | 57 | 270 | 3.5 | 14.8 | 0.00 | 0.00 | 0.00 | 81 | 1012.6 |
| 20260903011514 | 57 | 221 | 4.3 | 8.7 | 0.00 | 0.00 | 0.00 | 86 | 1012.6 |
| 20260903010012 | 57 | 264 | 5.2 | 11.3 | 0.00 | 0.00 | 0.00 | 83 | 1012.5 |
| 20260903004514 | 57 | 244 | 3.5 | 10.4 | 0.00 | 0.00 | 0.00 | 83 | 1012.2 |
| 20260903001508 | 57 | 338 | 7.0 | 15.6 | 0.00 | 0.00 | 0.00 | 77 | 1011.9 |
| 20260903000005 | 60 | 246 | 6.1 | 15.6 | 0.00 | 0.00 | 0.00 | 69 | 1011.5 |
| 20260902234503 | 59 | 286 | 5.2 | 14.8 | 0.00 | 0.00 | 0.00 | 65 | 1011.3 |
| 20260902231607 | 58 | 264 | 6.1 | 15.6 | 0.00 | 0.00 | 0.00 | 66 | 1010.9 |
| 20260902230056 | 58 | 338 | 7.0 | 16.5 | 0.00 | 0.00 | 0.00 | 66 | 1010.8 |
| 20260902224604 | 58 | 282 | 4.3 | 18.2 | 0.00 | 0.00 | 0.00 | 66 | 1010.6 |
| 20260902223153 | 56 | 311 | 7.0 | 15.6 | 0.00 | 0.00 | 0.00 | 68 | 1010.5 |
| 20260902221549 | 55 | 323 | 7.0 | 16.5 | 0.00 | 0.00 | 0.00 | 70 | 1010.4 |
| 20260902220053 | 54 | 338 | 5.2 | 12.2 | 0.00 | 0.00 | 0.00 | 70 | 1010.2 |
| 20260902214546 | 54 | 333 | 5.2 | 15.6 | 0.00 | 0.00 | 0.00 | 69 | 1010.3 |
| 20260902213147 | 54 | 298 | 3.5 | 11.3 | 0.00 | 0.00 | 0.00 | 69 | 1010.1 |
| 20260902211549 | 53 | 24 | 6.1 | 12.2 | 0.00 | 0.00 | 0.00 | 69 | 1009.9 |
| 20260902210048 | 53 | 355 | 2.6 | 9.6 | 0.00 | 0.00 | 0.00 | 69 | 1009.7 |
| 20260902204544 | 53 | 336 | 2.6 | 7.0 | 0.00 | 0.00 | 0.00 | 68 | 1009.3 |
| 20260902203143 | 54 | 325 | 5.2 | 9.6 | 0.00 | 0.00 | 0.00 | 67 | 1009.1 |
| 20260902201545 | 54 | 317 | 6.1 | 12.2 | 0.00 | 0.00 | 0.00 | 66 | 1009.3 |
| 20260902200052 | 54 | 321 | 3.5 | 12.2 | 0.00 | 0.00 | 0.00 | 65 | 1009.5 |
| 20260902194541 | 54 | 325 | 4.3 | 9.6 | 0.00 | 0.00 | 0.00 | 65 | 1009.4 |
| 20260902193140 | 54 | 336 | 4.3 | 11.3 | 0.00 | 0.00 | 0.00 | 65 | 1009.4 |
| 20260902191549 | 54 | 312 | 4.3 | 11.3 | 0.00 | 0.00 | 0.00 | 66 | 1009.4 |
| 20260902190040 | 53 | 355 | 4.3 | 9.6 | 0.00 | 0.00 | 0.00 | 67 | 1009.1 |
| 20260902184548 | 53 | 325 | 4.3 | 8.7 | 0.00 | 0.00 | 0.00 | 67 | 1009.0 |
| 20260902181536 | 53 | 301 | 3.5 | 9.6 | 0.00 | 0.00 | 0.00 | 69 | 1009.0 |
| 20260902180038 | 53 | 278 | 4.3 | 7.0 | 0.00 | 0.00 | 0.00 | 70 | 1009.0 |
| 20260902174531 | 53 | 306 | 3.5 | 9.6 | 0.00 | 0.00 | 0.00 | 69 | 1008.9 |
| 20260902173130 | 53 | 328 | 4.3 | 9.6 | 0.00 | 0.00 | 0.00 | 70 | 1009.1 |
| 20260902171528 | 53 | 328 | 2.6 | 9.6 | 0.00 | 0.00 | 0.00 | 69 | 1009.3 |
| 20260902170027 | 53 | 327 | 4.3 | 12.2 | 0.00 | 0.00 | 0.00 | 68 | 1009.1 |
| 20260902164524 | 53 | 313 | 2.6 | 10.4 | 0.00 | 0.00 | 0.00 | 70 | 1009.6 |
| 20260902163138 | 53 | 336 | 1.7 | 7.8 | 0.00 | 0.00 | 0.00 | 71 | 1010.1 |
| 20260902161520 | 53 | 304 | 2.6 | 7.8 | 0.00 | 0.00 | 0.00 | 71 | 1010.2 |
| 20260902160018 | 53 | 308 | 2.6 | 7.8 | 0.00 | 0.00 | 0.00 | 71 | 1010.2 |
| 20260902154525 | 53 | 330 | 3.5 | 7.8 | 0.00 | 0.00 | 0.00 | 72 | 1010.0 |
| 20260902153116 | 52 | 321 | 3.5 | 7.8 | 0.00 | 0.00 | 0.00 | 72 | 1010.1 |
| 20260902151514 | 52 | 311 | 1.7 | 7.8 | 0.00 | 0.00 | 0.00 | 72 | 1010.2 |
| 20260902150012 | 52 | 315 | 1.7 | 6.1 | 0.00 | 0.00 | 0.00 | 71 | 1010.1 |
| 20260902144518 | 53 | 259 | 1.7 | 7.8 | 0.00 | 0.00 | 0.00 | 70 | 1010.1 |
| 20260902143109 | 53 | 305 | 3.5 | 7.8 | 0.00 | 0.00 | 0.00 | 70 | 1010.1 |
| 20260902141509 | 53 | 325 | 2.6 | 7.0 | 0.00 | 0.00 | 0.00 | 69 | 1010.2 |
| 20260902140002 | 53 | 292 | 1.7 | 8.7 | 0.00 | 0.00 | 0.00 | 68 | 1010.4 |
| 20260902134601 | 53 | 308 | 3.5 | 7.8 | 0.00 | 0.00 | 0.00 | 67 | 1010.5 |
| 20260902133108 | 54 | 300 | 2.6 | 8.7 | 0.00 | 0.00 | 0.00 | 67 | 1010.7 |
| 20260902131602 | 54 | 327 | 3.5 | 8.7 | 0.00 | 0.00 | 0.00 | 67 | 1010.8 |
| 20260902130053 | 54 | 302 | 2.6 | 8.7 | 0.00 | 0.00 | 0.00 | 66 | 1010.9 |
| 20260902124552 | 55 | 287 | 0.9 | 7.8 | 0.00 | 0.00 | 0.00 | 66 | 1011.1 |
| 20260902123106 | 56 | 309 | 1.7 | 6.1 | 0.00 | 0.00 | 0.00 | 64 | 1011.3 |
| 20260902121558 | 56 | 283 | 3.5 | 8.7 | 0.00 | 0.00 | 0.00 | 64 | 1011.4 |
| 20260902120105 | 56 | 316 | 1.7 | 7.8 | 0.00 | 0.00 | 0.00 | 69 | 1011.6 |
| 20260902114550 | 55 | 309 | 0.0 | 4.3 | 0.00 | 0.00 | 0.00 | 70 | 1011.6 |
| 20260902113051 | 56 | 347 | 0.0 | 2.6 | 0.00 | 0.00 | 0.00 | 69 | 1011.7 |
| 20260902111556 | 56 | 347 | 0.0 | 3.5 | 0.00 | 0.00 | 0.00 | 69 | 1011.7 |
| 20260902110048 | 56 | 348 | 0.9 | 4.3 | 0.00 | 0.00 | 0.00 | 70 | 1011.8 |
| 20260902104548 | 55 | 318 | 0.0 | 2.6 | 0.00 | 0.00 | 0.00 | 70 | 1011.8 |
| 20260902103048 | 55 | 325 | 0.0 | 2.6 | 0.00 | 0.00 | 0.00 | 70 | 1011.9 |
| 20260902101550 | 55 | 309 | 0.0 | 1.7 | 0.00 | 0.00 | 0.00 | 70 | 1011.7 |
| 20260902094548 | 55 | 308 | 0.0 | 0.0 | 0.00 | 0.00 | 0.00 | 70 | 1011.4 |
| 20260902093048 | 54 | 308 | 0.0 | 0.0 | 0.00 | 0.00 | 0.00 | 70 | 1011.2 |
| 20260902091552 | 54 | 308 | 0.0 | 1.7 | 0.00 | 0.00 | 0.00 | 70 | 1011.1 |
| 20260902090047 | 55 | 284 | 0.0 | 0.9 | 0.00 | 0.00 | 0.00 | 69 | 1011.0 |
| 20260902084547 | 55 | 281 | 0.0 | 0.0 | 0.00 | 0.00 | 0.00 | 68 | 1011.0 |
| 20260902083049 | 56 | 281 | 0.0 | 0.0 | 0.00 | 0.00 | 0.00 | 66 | 1011.1 |
| 20260902081549 | 56 | 281 | 0.0 | 0.9 | 0.00 | 0.00 | 0.00 | 65 | 1011.0 |
| 20260902080048 | 57 | 278 | 0.0 | 3.5 | 0.00 | 0.00 | 0.00 | 65 | 1011.1 |
| 20260902074552 | 58 | 269 | 0.0 | 2.6 | 0.00 | 0.00 | 0.00 | 64 | 1011.0 |
| 20260902073046 | 58 | 258 | 1.7 | 7.8 | 0.00 | 0.00 | 0.00 | 62 | 1010.9 |
| 20260902071547 | 59 | 263 | 0.9 | 6.1 | 0.00 | 0.00 | 0.00 | 62 | 1010.9 |
| 20260902070045 | 59 | 243 | 1.7 | 6.1 | 0.00 | 0.00 | 0.00 | 60 | 1010.9 |
| 20260902064543 | 60 | 248 | 1.7 | 6.1 | 0.00 | 0.00 | 0.00 | 60 | 1011.1 |
| 20260902063054 | 60 | 286 | 1.7 | 10.4 | 0.00 | 0.00 | 0.00 | 60 | 1011.4 |
| 20260902061600 | 61 | 219 | 3.5 | 10.4 | 0.00 | 0.00 | 0.00 | 59 | 1011.5 |
| 20260902060039 | 61 | 248 | 4.3 | 10.4 | 0.00 | 0.00 | 0.00 | 58 | 1011.7 |
| 20260902054544 | 61 | 271 | 5.2 | 12.2 | 0.00 | 0.00 | 0.00 | 59 | 1011.8 |
| 20260902053039 | 61 | 271 | 3.5 | 12.2 | 0.00 | 0.00 | 0.00 | 59 | 1011.9 |
| 20260902051544 | 61 | 228 | 5.2 | 11.3 | 0.00 | 0.00 | 0.00 | 59 | 1012.0 |
| 20260902050056 | 61 | 263 | 6.1 | 12.2 | 0.00 | 0.00 | 0.00 | 59 | 1012.1 |
| 20260902044538 | 61 | 223 | 5.2 | 11.3 | 0.00 | 0.00 | 0.00 | 58 | 1012.2 |
| 20260902043045 | 61 | 228 | 5.2 | 11.3 | 0.00 | 0.00 | 0.00 | 58 | 1012.1 |
| 20260902041539 | 61 | 270 | 5.2 | 9.6 | 0.00 | 0.00 | 0.00 | 59 | 1012.2 |
| 20260902040039 | 61 | 238 | 3.5 | 11.3 | 0.00 | 0.00 | 0.00 | 59 | 1012.4 |
| 20260902034538 | 61 | 290 | 5.2 | 10.4 | 0.00 | 0.00 | 0.00 | 59 | 1012.5 |